When you browse on this site, cookies collect data to enhance your experience and personalize the content and advertising you see.
Visit our Privacy Policy to learn more. By continuing to use the site, you agree to this use of cookies and data.

Tiempo cada hora Maceio

Hoy, 19 Septiembre, Sábado

Tiempo Temperatura Precipitaciones Viento Presión Humedad
00:00 +22°C° 0.1 mm 3 mps 761 mmHg 91%
01:00 +22°C° 0.1 mm 3 mps 760 mmHg 92%
02:00 +22°C° 0 mm 3 mps 760 mmHg 92%
03:00 +22°C° 0 mm 3 mps 760 mmHg 92%
04:00 +22°C° 0 mm 3 mps 759 mmHg 92%
05:00 +22°C° 0 mm 3 mps 760 mmHg 92%
06:00 +22°C° 0 mm 3 mps 760 mmHg 91%
07:00 +22°C° 0 mm 3 mps 760 mmHg 91%
08:00 +25°C° 0 mm 3 mps 761 mmHg 81%
09:00 +27°C° 0 mm 3 mps 761 mmHg 71%
10:00 +30°C° 0 mm 4 mps 761 mmHg 61%
11:00 +30°C° 0.1 mm 4 mps 761 mmHg 59%
12:00 +32°C° 0.1 mm 4 mps 760 mmHg 58%
13:00 +32°C° 0.1 mm 5 mps 760 mmHg 57%
14:00 +32°C° 0 mm 5 mps 759 mmHg 59%
15:00 +30°C° 0 mm 5 mps 759 mmHg 61%
16:00 +30°C° 0 mm 5 mps 759 mmHg 63%
17:00 +28°C° 0 mm 5 mps 759 mmHg 70%
18:00 +27°C° 0 mm 5 mps 759 mmHg 76%
19:00 +25°C° 0 mm 5 mps 760 mmHg 83%
20:00 +25°C° 0 mm 4 mps 760 mmHg 85%
21:00 +23°C° 0 mm 4 mps 761 mmHg 87%
22:00 +23°C° 0 mm 4 mps 761 mmHg 90%
23:00 +23°C° 0 mm 4 mps 761 mmHg 90%

Mañana, 20 Septiembre, Domingo

Tiempo Temperatura Precipitaciones Viento Presión Humedad
00:00 +22°C° 0 mm 4 mps 761 mmHg 91%
01:00 +22°C° 0 mm 4 mps 760 mmHg 92%
02:00 +22°C° 0 mm 4 mps 760 mmHg 92%
03:00 +22°C° 0 mm 4 mps 760 mmHg 92%
04:00 +22°C° 0 mm 4 mps 759 mmHg 93%
05:00 +22°C° 0 mm 4 mps 760 mmHg 92%
06:00 +22°C° 0 mm 3 mps 760 mmHg 92%
07:00 +22°C° 0 mm 3 mps 760 mmHg 91%
08:00 +26°C° 0 mm 3 mps 761 mmHg 81%
09:00 +28°C° 0 mm 3 mps 761 mmHg 71%
10:00 +30°C° 0 mm 3 mps 761 mmHg 61%
11:00 +32°C° 0 mm 4 mps 761 mmHg 58%
12:00 +33°C° 0 mm 4 mps 760 mmHg 55%
13:00 +33°C° 0 mm 4 mps 760 mmHg 53%
14:00 +33°C° 0 mm 5 mps 759 mmHg 56%
15:00 +32°C° 0 mm 5 mps 759 mmHg 59%
16:00 +32°C° 0 mm 5 mps 758 mmHg 61%
17:00 +29°C° 0 mm 5 mps 759 mmHg 69%
18:00 +27°C° 0 mm 5 mps 759 mmHg 76%
19:00 +26°C° 0 mm 5 mps 760 mmHg 83%
20:00 +25°C° 0 mm 5 mps 760 mmHg 86%
21:00 +25°C° 0 mm 4 mps 760 mmHg 89%
22:00 +23°C° 0 mm 4 mps 761 mmHg 92%
23:00 +23°C° 0.1 mm 4 mps 760 mmHg 93%

Pasado mañana, 21 Septiembre, Lunes

Tiempo Temperatura Precipitaciones Viento Presión Humedad
00:00 +23°C° 0.1 mm 4 mps 760 mmHg 94%
01:00 +23°C° 0.1 mm 4 mps 760 mmHg 94%
02:00 +23°C° 0 mm 4 mps 760 mmHg 94%
03:00 +22°C° 0 mm 4 mps 759 mmHg 95%
04:00 +22°C° 0 mm 4 mps 759 mmHg 95%
05:00 +23°C° 0.1 mm 4 mps 760 mmHg 94%
06:00 +23°C° 0.1 mm 4 mps 760 mmHg 93%
07:00 +23°C° 0.1 mm 4 mps 760 mmHg 92%
08:00 +26°C° 0.2 mm 5 mps 761 mmHg 83%
09:00 +28°C° 0.2 mm 6 mps 761 mmHg 74%
10:00 +30°C° 0.2 mm 7 mps 761 mmHg 65%
11:00 +32°C° 0.2 mm 7 mps 761 mmHg 64%
12:00 +32°C° 0.2 mm 7 mps 761 mmHg 63%
13:00 +32°C° 0.2 mm 7 mps 760 mmHg 63%
14:00 +32°C° 0.1 mm 7 mps 760 mmHg 65%
15:00 +30°C° 0.1 mm 7 mps 759 mmHg 67%
16:00 +30°C° 0.1 mm 7 mps 759 mmHg 69%
17:00 +29°C° 0 mm 6 mps 760 mmHg 73%
18:00 +27°C° 0 mm 6 mps 760 mmHg 77%
19:00 +26°C° 0 mm 6 mps 760 mmHg 82%
20:00 +26°C° 0 mm 6 mps 761 mmHg 83%
21:00 +26°C° 0 mm 6 mps 761 mmHg 85%
22:00 +24°C° 0 mm 6 mps 761 mmHg 87%
23:00 +24°C° 0 mm 6 mps 761 mmHg 88%

22 Septiembre, Martes

Tiempo Temperatura Precipitaciones Viento Presión Humedad
00:00 +24°C° 0 mm 6 mps 761 mmHg 90%
01:00 +25°C° 0 mm 5 mps 761 mmHg 92%
02:00 +23°C° 0 mm 5 mps 760 mmHg 92%
03:00 +23°C° 0 mm 5 mps 760 mmHg 92%
04:00 +23°C° 0 mm 5 mps 760 mmHg 93%
05:00 +23°C° 0 mm 5 mps 760 mmHg 92%
06:00 +25°C° 0 mm 4 mps 761 mmHg 91%
07:00 +25°C° 0 mm 4 mps 761 mmHg 90%
08:00 +26°C° 0.1 mm 5 mps 762 mmHg 83%
09:00 +28°C° 0.1 mm 5 mps 762 mmHg 77%
10:00 +29°C° 0.1 mm 6 mps 763 mmHg 71%
11:00 +30°C° 0.1 mm 6 mps 762 mmHg 67%
12:00 +32°C° 0.1 mm 6 mps 762 mmHg 64%
13:00 +32°C° 0.1 mm 6 mps 761 mmHg 61%
14:00 +32°C° 0 mm 6 mps 761 mmHg 62%
15:00 +30°C° 0 mm 6 mps 761 mmHg 64%
16:00 +30°C° 0 mm 6 mps 761 mmHg 66%
17:00 +28°C° 0 mm 5 mps 761 mmHg 72%
18:00 +27°C° 0 mm 5 mps 762 mmHg 78%
19:00 +25°C° 0 mm 4 mps 762 mmHg 84%
20:00 +25°C° 0 mm 4 mps 762 mmHg 85%
21:00 +23°C° 0 mm 4 mps 763 mmHg 87%
22:00 +23°C° 0 mm 4 mps 763 mmHg 89%
23:00 +23°C° 0 mm 4 mps 763 mmHg 89%

23 Septiembre, Miércoles

Tiempo Temperatura Precipitaciones Viento Presión Humedad
00:00 +23°C° 0 mm 4 mps 762 mmHg 90%
01:00 +23°C° 0 mm 4 mps 762 mmHg 91%
02:00 +23°C° 0 mm 4 mps 762 mmHg 91%
03:00 +22°C° 0 mm 4 mps 761 mmHg 92%
04:00 +22°C° 0 mm 4 mps 761 mmHg 92%
05:00 +23°C° 0 mm 4 mps 761 mmHg 91%
06:00 +23°C° 0 mm 4 mps 762 mmHg 90%
07:00 +23°C° 0 mm 4 mps 762 mmHg 89%
08:00 +26°C° 0 mm 4 mps 762 mmHg 79%
09:00 +28°C° 0 mm 4 mps 763 mmHg 69%
10:00 +30°C° 0 mm 5 mps 763 mmHg 58%
11:00 +30°C° 0 mm 5 mps 762 mmHg 56%
12:00 +32°C° 0 mm 5 mps 762 mmHg 55%
13:00 +32°C° 0 mm 5 mps 762 mmHg 53%
14:00 +32°C° 0 mm 5 mps 761 mmHg 55%
15:00 +30°C° 0 mm 5 mps 761 mmHg 57%
16:00 +29°C° 0 mm 5 mps 761 mmHg 59%
17:00 +28°C° 0 mm 5 mps 761 mmHg 67%
18:00 +26°C° 0 mm 4 mps 761 mmHg 75%
19:00 +25°C° 0 mm 4 mps 762 mmHg 83%
20:00 +23°C° 0.1 mm 4 mps 762 mmHg 85%
21:00 +23°C° 0.1 mm 4 mps 762 mmHg 87%
22:00 +23°C° 0.1 mm 4 mps 763 mmHg 89%
23:00 +22°C° 0.3 mm 4 mps 762 mmHg 90%

24 Septiembre, Jueves

Tiempo Temperatura Precipitaciones Viento Presión Humedad
00:00 +22°C° 0.3 mm 4 mps 762 mmHg 90%
01:00 +22°C° 0.3 mm 5 mps 762 mmHg 91%
02:00 +22°C° 0.2 mm 5 mps 761 mmHg 91%
03:00 +22°C° 0.2 mm 5 mps 761 mmHg 91%
04:00 +22°C° 0.2 mm 5 mps 761 mmHg 91%
05:00 +23°C° 0.2 mm 5 mps 761 mmHg 91%
06:00 +23°C° 0.2 mm 5 mps 761 mmHg 90%
07:00 +23°C° 0.2 mm 4 mps 761 mmHg 89%
08:00 +26°C° 0.1 mm 5 mps 762 mmHg 81%
09:00 +27°C° 0.1 mm 5 mps 762 mmHg 73%
10:00 +29°C° 0.1 mm 5 mps 762 mmHg 66%
11:00 +29°C° 0 mm 5 mps 762 mmHg 61%
12:00 +30°C° 0 mm 5 mps 761 mmHg 57%
13:00 +32°C° 0 mm 5 mps 761 mmHg 52%
14:00 +30°C° 0 mm 5 mps 760 mmHg 54%
15:00 +30°C° 0 mm 5 mps 760 mmHg 56%
16:00 +29°C° 0 mm 4 mps 760 mmHg 58%
17:00 +28°C° 0.1 mm 4 mps 760 mmHg 66%
18:00 +26°C° 0.1 mm 3 mps 760 mmHg 74%
19:00 +24°C° 0.1 mm 3 mps 761 mmHg 82%
20:00 +24°C° 0.2 mm 3 mps 761 mmHg 84%
21:00 +24°C° 0.2 mm 3 mps 762 mmHg 86%
22:00 +22°C° 0.2 mm 3 mps 762 mmHg 88%
23:00 +22°C° 0.4 mm 3 mps 762 mmHg 89%
Mostrar más